Time,TemperatureF,DewpointF,PressureIn,WindDirection,WindDirectionDegrees,WindSpeedMPH,WindSpeedGustMPH,Humidity,HourlyPrecipIn,Conditions,Clouds,dailyrainin,SolarRadiationWatts/m^2,SoftwareType,DateUTC
2013-02-19 00:01:00,19.0,7.0,-100.00,SE,135,17.0,29.0,60,0.00,,,-99.99,0.000000,,2013-02-19 07:01:00,
2013-02-19 00:32:00,18.0,6.0,-100.00,SE,137,19.0,24.0,59,0.00,,,0.00,0.000000,,2013-02-19 07:32:00,
2013-02-19 00:42:00,18.0,6.0,-100.00,SE,137,19.0,24.0,59,0.00,,,0.00,0.000000,,2013-02-19 07:42:00,
2013-02-19 00:52:00,18.0,6.0,-100.00,SE,137,19.0,24.0,59,0.00,,,0.00,0.000000,,2013-02-19 07:52:00,
2013-02-19 01:01:00,18.0,6.0,-100.00,SE,137,19.0,24.0,59,0.00,,,0.00,0.000000,,2013-02-19 08:01:00,
2013-02-19 01:32:00,17.0,6.0,-100.00,SE,136,18.0,24.0,61,0.00,,,0.00,0.000000,,2013-02-19 08:32:00,
2013-02-19 01:42:00,17.0,6.0,-100.00,SE,136,18.0,24.0,61,0.00,,,0.00,0.000000,,2013-02-19 08:42:00,
2013-02-19 01:52:00,17.0,6.0,-100.00,SE,136,18.0,24.0,61,0.00,,,0.00,0.000000,,2013-02-19 08:52:00,
2013-02-19 02:01:00,17.0,6.0,-100.00,SE,136,18.0,24.0,61,0.00,,,0.00,0.000000,,2013-02-19 09:01:00,
2013-02-19 02:32:00,17.0,7.0,-100.00,SE,142,18.0,27.0,63,0.00,,,0.00,0.000000,,2013-02-19 09:32:00,
2013-02-19 02:42:00,17.0,7.0,-100.00,SE,142,18.0,27.0,63,0.00,,,0.00,0.000000,,2013-02-19 09:42:00,
2013-02-19 02:53:00,17.0,7.0,-100.00,SE,142,18.0,27.0,63,0.00,,,0.00,0.000000,,2013-02-19 09:53:00,
2013-02-19 03:01:00,17.0,7.0,-100.00,SE,142,18.0,27.0,63,0.00,,,0.00,0.000000,,2013-02-19 10:01:00,
2013-02-19 03:32:00,17.0,7.0,-100.00,SE,136,18.0,24.0,64,0.00,,,0.00,0.000000,,2013-02-19 10:32:00,
2013-02-19 03:42:00,17.0,7.0,-100.00,SE,136,18.0,24.0,64,0.00,,,0.00,0.000000,,2013-02-19 10:42:00,
2013-02-19 03:52:00,17.0,7.0,-100.00,SE,136,18.0,24.0,64,0.00,,,0.00,0.000000,,2013-02-19 10:52:00,
2013-02-19 04:01:00,17.0,7.0,-100.00,SE,136,18.0,24.0,64,0.00,,,0.00,0.000000,,2013-02-19 11:01:00,
2013-02-19 04:32:00,17.0,7.0,-100.00,SE,129,17.0,23.0,63,0.00,,,0.00,0.000000,,2013-02-19 11:32:00,
2013-02-19 04:42:00,17.0,7.0,-100.00,SE,129,17.0,23.0,63,0.00,,,0.00,0.000000,,2013-02-19 11:42:00,
2013-02-19 04:52:00,17.0,7.0,-100.00,SE,129,17.0,23.0,63,0.00,,,0.00,0.000000,,2013-02-19 11:52:00,
2013-02-19 05:01:00,17.0,7.0,-100.00,SE,129,17.0,23.0,63,0.00,,,0.00,0.000000,,2013-02-19 12:01:00,
2013-02-19 05:32:00,17.0,6.0,-100.00,SE,130,16.0,29.0,62,0.00,,,0.00,0.000000,,2013-02-19 12:32:00,
2013-02-19 05:42:00,17.0,6.0,-100.00,SE,130,16.0,29.0,62,0.00,,,0.00,0.000000,,2013-02-19 12:42:00,
2013-02-19 05:52:00,17.0,6.0,-100.00,SE,130,16.0,29.0,62,0.00,,,0.00,0.000000,,2013-02-19 12:52:00,
2013-02-19 06:01:00,17.0,6.0,-100.00,SE,130,16.0,29.0,62,0.00,,,0.00,0.000000,,2013-02-19 13:01:00,
2013-02-19 06:32:00,17.0,5.0,-100.00,SE,128,17.0,24.0,59,0.00,,,0.00,0.000000,,2013-02-19 13:32:00,
2013-02-19 06:42:00,17.0,5.0,-100.00,SE,128,17.0,24.0,59,0.00,,,0.00,0.000000,,2013-02-19 13:42:00,
2013-02-19 06:52:00,17.0,5.0,-100.00,SE,128,17.0,24.0,59,0.00,,,0.00,0.000000,,2013-02-19 13:52:00,
2013-02-19 07:01:00,17.0,5.0,-100.00,SE,128,17.0,24.0,59,0.00,,,0.00,0.000000,,2013-02-19 14:01:00,
2013-02-19 07:33:00,17.0,5.0,-100.00,SSE,148,18.0,24.0,59,0.00,,,0.00,0.000000,,2013-02-19 14:33:00,
2013-02-19 07:42:00,17.0,5.0,-100.00,SSE,148,18.0,24.0,59,0.00,,,0.00,0.000000,,2013-02-19 14:42:00,
2013-02-19 07:52:00,17.0,5.0,-100.00,SSE,148,18.0,24.0,59,0.00,,,0.00,0.000000,,2013-02-19 14:52:00,
2013-02-19 08:01:00,17.0,5.0,-100.00,SSE,148,18.0,24.0,59,0.00,,,0.00,0.000000,,2013-02-19 15:01:00,
2013-02-19 08:32:00,16.0,4.0,-100.00,SE,136,18.0,25.0,59,0.00,,,0.00,6.000000,,2013-02-19 15:32:00,
2013-02-19 08:42:00,16.0,4.0,-100.00,SE,136,18.0,25.0,59,0.00,,,0.00,6.000000,,2013-02-19 15:42:00,
2013-02-19 08:52:00,16.0,4.0,-100.00,SE,136,18.0,25.0,59,0.00,,,0.00,6.000000,,2013-02-19 15:52:00,
2013-02-19 09:01:00,16.0,4.0,-100.00,SE,136,18.0,25.0,59,0.00,,,0.00,6.000000,,2013-02-19 16:01:00,
2013-02-19 10:32:00,18.0,5.0,-100.00,SE,132,15.0,21.0,56,-99.99,,,0.00,141.000000,,2013-02-19 17:32:00,
2013-02-19 10:42:00,18.0,5.0,-100.00,SE,132,15.0,21.0,56,-99.99,,,0.00,141.000000,,2013-02-19 17:42:00,
2013-02-19 10:52:00,18.0,5.0,-100.00,SE,132,15.0,21.0,56,-99.99,,,0.00,141.000000,,2013-02-19 17:52:00,
2013-02-19 11:01:00,18.0,5.0,-100.00,SE,132,15.0,21.0,56,-99.99,,,0.00,141.000000,,2013-02-19 18:01:00,
2013-02-19 11:32:00,23.0,9.0,-100.00,SE,130,18.0,23.0,54,0.00,,,0.00,349.000000,,2013-02-19 18:32:00,
2013-02-19 11:42:00,23.0,9.0,-100.00,SE,130,18.0,23.0,54,0.00,,,0.00,349.000000,,2013-02-19 18:42:00,
2013-02-19 11:52:00,23.0,9.0,-100.00,SE,130,18.0,23.0,54,0.00,,,0.00,349.000000,,2013-02-19 18:52:00,
2013-02-19 12:01:00,23.0,9.0,-100.00,SE,130,18.0,23.0,54,0.00,,,0.00,349.000000,,2013-02-19 19:01:00,
2013-02-19 12:32:00,27.0,9.0,-100.00,SE,135,12.0,26.0,45,0.00,,,0.00,647.000000,,2013-02-19 19:32:00,
2013-02-19 12:42:00,27.0,9.0,-100.00,SE,135,12.0,26.0,45,0.00,,,0.00,647.000000,,2013-02-19 19:42:00,
2013-02-19 12:52:00,27.0,9.0,-100.00,SE,135,12.0,26.0,45,0.00,,,0.00,647.000000,,2013-02-19 19:52:00,
2013-02-19 13:01:00,27.0,9.0,-100.00,SE,135,12.0,26.0,45,0.00,,,0.00,647.000000,,2013-02-19 20:01:00,
2013-02-19 13:32:00,28.0,8.0,-100.00,South,175,8.0,17.0,43,0.00,,,-99.99,595.000000,,2013-02-19 20:32:00,
2013-02-19 13:42:00,28.0,8.0,-100.00,South,175,8.0,17.0,43,0.00,,,-99.99,595.000000,,2013-02-19 20:42:00,
2013-02-19 13:52:00,28.0,8.0,-100.00,South,175,8.0,17.0,43,0.00,,,-99.99,595.000000,,2013-02-19 20:52:00,
2013-02-19 14:01:00,28.0,8.0,-100.00,South,175,8.0,17.0,43,0.00,,,-99.99,595.000000,,2013-02-19 21:01:00,
2013-02-19 14:32:00,27.0,10.0,-100.00,SSE,163,6.0,13.0,49,0.00,,,0.00,346.000000,,2013-02-19 21:32:00,
2013-02-19 14:42:00,27.0,10.0,-100.00,SSE,163,6.0,13.0,49,0.00,,,0.00,346.000000,,2013-02-19 21:42:00,
2013-02-19 14:52:00,27.0,10.0,-100.00,SSE,163,6.0,13.0,49,0.00,,,0.00,346.000000,,2013-02-19 21:52:00,
2013-02-19 15:01:00,27.0,10.0,-100.00,SSE,163,6.0,13.0,49,0.00,,,0.00,346.000000,,2013-02-19 22:01:00,
2013-02-19 15:32:00,27.0,12.0,-100.00,SSE,166,5.0,14.0,53,0.00,,,-99.99,259.000000,,2013-02-19 22:32:00,
2013-02-19 15:42:00,27.0,12.0,-100.00,SSE,166,5.0,14.0,53,0.00,,,-99.99,259.000000,,2013-02-19 22:42:00,
2013-02-19 15:52:00,27.0,12.0,-100.00,SSE,166,5.0,14.0,53,0.00,,,-99.99,259.000000,,2013-02-19 22:52:00,
2013-02-19 16:01:00,27.0,12.0,-100.00,SSE,166,5.0,14.0,53,0.00,,,-99.99,259.000000,,2013-02-19 23:01:00,
2013-02-19 16:32:00,26.0,13.0,-100.00,South,179,4.0,7.0,57,0.00,,,0.00,147.000000,,2013-02-19 23:32:00,
2013-02-19 16:42:00,26.0,13.0,-100.00,South,179,4.0,7.0,57,0.00,,,0.00,147.000000,,2013-02-19 23:42:00,
2013-02-19 16:52:00,26.0,13.0,-100.00,South,179,4.0,7.0,57,0.00,,,0.00,147.000000,,2013-02-19 23:52:00,
2013-02-19 17:01:00,26.0,13.0,-100.00,South,179,4.0,7.0,57,0.00,,,0.00,147.000000,,2013-02-20 00:01:00,
2013-02-19 17:32:00,24.0,17.0,-100.00,NW,326,2.0,9.0,73,0.00,,,0.00,77.000000,,2013-02-20 00:32:00,
2013-02-19 17:42:00,24.0,17.0,-100.00,NW,326,2.0,9.0,73,0.00,,,0.00,77.000000,,2013-02-20 00:42:00,
2013-02-19 17:52:00,24.0,17.0,-100.00,NW,326,2.0,9.0,73,0.00,,,0.00,77.000000,,2013-02-20 00:52:00,
2013-02-19 18:02:00,24.0,17.0,-100.00,NW,326,2.0,9.0,73,0.00,,,0.00,77.000000,,2013-02-20 01:02:00,
2013-02-19 18:32:00,21.0,18.0,-100.00,West,264,3.0,7.0,89,0.00,,,0.00,20.000000,,2013-02-20 01:32:00,
2013-02-19 18:42:00,21.0,18.0,-100.00,West,264,3.0,7.0,89,0.00,,,0.00,20.000000,,2013-02-20 01:42:00,
2013-02-19 18:52:00,21.0,18.0,-100.00,West,264,3.0,7.0,89,0.00,,,0.00,20.000000,,2013-02-20 01:52:00,
2013-02-19 19:01:00,21.0,18.0,-100.00,West,264,3.0,7.0,89,0.00,,,0.00,20.000000,,2013-02-20 02:01:00,
2013-02-19 19:32:00,20.0,17.0,-100.00,WNW,296,4.0,7.0,89,0.00,,,0.00,0.000000,,2013-02-20 02:32:00,
2013-02-19 19:42:00,20.0,17.0,-100.00,WNW,296,4.0,7.0,89,0.00,,,0.00,0.000000,,2013-02-20 02:42:00,
2013-02-19 19:52:00,20.0,17.0,-100.00,WNW,296,4.0,7.0,89,0.00,,,0.00,0.000000,,2013-02-20 02:52:00,
2013-02-19 20:01:00,20.0,17.0,-100.00,WNW,296,4.0,7.0,89,0.00,,,0.00,0.000000,,2013-02-20 03:01:00,
2013-02-19 20:32:00,21.0,19.0,-100.00,WSW,254,2.0,6.0,90,0.00,,,0.00,0.000000,,2013-02-20 03:32:00,
2013-02-19 20:42:00,21.0,19.0,-100.00,WSW,254,2.0,6.0,90,0.00,,,0.00,0.000000,,2013-02-20 03:42:00,
2013-02-19 20:52:00,21.0,19.0,-100.00,WSW,254,2.0,6.0,90,0.00,,,0.00,0.000000,,2013-02-20 03:52:00,
2013-02-19 21:01:00,21.0,19.0,-100.00,WSW,254,2.0,6.0,90,0.00,,,0.00,0.000000,,2013-02-20 04:01:00,
2013-02-19 21:32:00,20.0,17.0,-100.00,North,8,0.0,6.0,89,0.00,,,0.00,0.000000,,2013-02-20 04:32:00,
2013-02-19 21:42:00,20.0,17.0,-100.00,North,8,0.0,6.0,89,0.00,,,0.00,0.000000,,2013-02-20 04:42:00,
2013-02-19 21:52:00,20.0,17.0,-100.00,North,8,0.0,6.0,89,0.00,,,0.00,0.000000,,2013-02-20 04:52:00,
2013-02-19 22:02:00,20.0,17.0,-100.00,North,8,0.0,6.0,89,0.00,,,0.00,0.000000,,2013-02-20 05:02:00,
2013-02-19 22:32:00,20.0,18.0,-100.00,North,7,5.0,9.0,90,0.00,,,0.00,0.000000,,2013-02-20 05:32:00,
2013-02-19 22:43:00,20.0,18.0,-100.00,North,7,5.0,9.0,90,0.00,,,0.00,0.000000,,2013-02-20 05:43:00,
2013-02-19 22:52:00,20.0,18.0,-100.00,North,7,5.0,9.0,90,0.00,,,0.00,0.000000,,2013-02-20 05:52:00,
2013-02-19 23:01:00,20.0,18.0,-100.00,North,7,5.0,9.0,90,0.00,,,0.00,0.000000,,2013-02-20 06:01:00,
2013-02-19 23:32:00,19.0,16.0,-100.00,NNW,345,7.0,12.0,88,0.00,,,0.00,0.000000,,2013-02-20 06:32:00,
2013-02-19 23:42:00,19.0,16.0,-100.00,NNW,345,7.0,12.0,88,0.00,,,0.00,0.000000,,2013-02-20 06:42:00,
2013-02-19 23:52:00,19.0,16.0,-100.00,NNW,345,7.0,12.0,88,0.00,,,0.00,0.000000,,2013-02-20 06:52:00,